User: anonymous   Login
Location: Ecklingerode
(51.5036°N, 10.3122°E)
Time: 08:33:31
(UTC+00:00)
Language:

PSLV R/B - Orbit

View from above orbital plane
View from above orbital plane
View from above satellite
View from above satellite

Ground track
Ground track

The orbit data is extracted from the following two-line orbital elements,

1 36800U 10035F   21018.84181099 -.00000207  00000-0 -13034-4 0  9994
2 36800  98.1607 211.0628 0021478 330.7454  29.2561 14.94838873572800
Epoch (UTC): 18 January 2021 20:12:12
Eccentricity: 0.0021478
inclination: 98.1607°
perigee height: 568 km
apogee height: 598 km
right ascension of ascending node: 211.0628°
argument of perigee: 330.7454°
revolutions per day: 14.94838873
mean anomaly at epoch: 29.2561°
orbit number at epoch: 57280

The dashed part of the orbit path shows where the satellite is in the earth's shadow,  

DLR